Year,Month,Day,Hour,Minute,Value (Times are PST for temperature in C)
2006,06,26,00,00,17.30
2006,06,26,00,01,17.30
2006,06,26,00,02,17.30
2006,06,26,00,03,17.30
2006,06,26,00,04,17.30
2006,06,26,00,05,17.30
2006,06,26,00,06,17.30
2006,06,26,00,07,17.30
2006,06,26,00,08,17.30
2006,06,26,00,09,17.30
2006,06,26,00,10,17.30
2006,06,26,00,11,17.30
2006,06,26,00,12,17.30
2006,06,26,00,13,17.30
2006,06,26,00,14,17.30
2006,06,26,00,15,17.30
2006,06,26,00,16,17.30
2006,06,26,00,17,17.30
2006,06,26,00,18,17.30
2006,06,26,00,19,17.30
2006,06,26,00,20,17.30
2006,06,26,00,21,17.30
2006,06,26,00,22,17.30
2006,06,26,00,23,17.30
2006,06,26,00,24,17.30
2006,06,26,00,25,17.30
2006,06,26,00,26,17.30
2006,06,26,00,27,17.20
2006,06,26,00,28,17.20
2006,06,26,00,29,17.20
2006,06,26,00,30,17.20
2006,06,26,00,31,17.20
2006,06,26,00,32,17.20
2006,06,26,00,33,17.20
2006,06,26,00,34,17.20
2006,06,26,00,35,17.20
2006,06,26,00,36,17.20
2006,06,26,00,37,17.20
2006,06,26,00,38,17.20
2006,06,26,00,39,17.20
2006,06,26,00,40,17.20
2006,06,26,00,41,17.20
2006,06,26,00,42,17.30
2006,06,26,00,43,17.30
2006,06,26,00,44,17.30
2006,06,26,00,45,17.30
2006,06,26,00,46,17.30
2006,06,26,00,47,17.30
2006,06,26,00,48,17.30
2006,06,26,00,49,17.30
2006,06,26,00,50,17.30
2006,06,26,00,51,17.40
2006,06,26,00,52,17.40
2006,06,26,00,53,17.40
2006,06,26,00,54,17.50
2006,06,26,00,55,17.50
2006,06,26,00,56,17.50
2006,06,26,00,57,17.50
2006,06,26,00,58,17.60
2006,06,26,00,59,17.60
2006,06,26,01,00,17.60
2006,06,26,01,01,17.60
2006,06,26,01,02,17.50
2006,06,26,01,03,17.50
2006,06,26,01,04,17.50
2006,06,26,01,05,17.50
2006,06,26,01,06,17.40
2006,06,26,01,07,17.40
2006,06,26,01,08,17.30
2006,06,26,01,09,17.30
2006,06,26,01,10,17.30
2006,06,26,01,11,17.20
2006,06,26,01,12,17.20
2006,06,26,01,13,17.10
2006,06,26,01,14,17.00
2006,06,26,01,15,17.00
2006,06,26,01,16,17.00
2006,06,26,01,17,16.90
2006,06,26,01,18,16.90
2006,06,26,01,19,16.80
2006,06,26,01,20,16.80
2006,06,26,01,21,16.70
2006,06,26,01,22,16.70
2006,06,26,01,23,16.70
2006,06,26,01,24,16.70
2006,06,26,01,25,16.60
2006,06,26,01,26,16.60
2006,06,26,01,27,16.60
2006,06,26,01,28,16.50
2006,06,26,01,29,16.40
2006,06,26,01,30,16.40
2006,06,26,01,31,16.40
2006,06,26,01,32,16.40
2006,06,26,01,33,16.40
2006,06,26,01,34,16.40
2006,06,26,01,35,16.40
2006,06,26,01,36,16.40
2006,06,26,01,37,16.40
2006,06,26,01,38,16.40
2006,06,26,01,39,16.40
2006,06,26,01,40,16.40
2006,06,26,01,41,16.40
2006,06,26,01,42,16.40
2006,06,26,01,43,16.40
2006,06,26,01,44,16.40
2006,06,26,01,45,16.40
2006,06,26,01,46,16.40
2006,06,26,01,47,16.40
2006,06,26,01,48,16.40
2006,06,26,01,49,16.40
2006,06,26,01,50,16.40
2006,06,26,01,51,16.30
2006,06,26,01,52,16.30
2006,06,26,01,53,16.30
2006,06,26,01,54,16.30
2006,06,26,01,55,16.30
2006,06,26,01,56,16.30
2006,06,26,01,57,16.20
2006,06,26,01,58,16.20
2006,06,26,01,59,16.20
2006,06,26,02,00,16.20
2006,06,26,02,01,16.20
2006,06,26,02,02,16.10
2006,06,26,02,03,16.10
2006,06,26,02,04,16.10
2006,06,26,02,05,16.10
2006,06,26,02,06,16.10
2006,06,26,02,07,16.10
2006,06,26,02,08,16.10
2006,06,26,02,09,16.10
2006,06,26,02,10,16.10
2006,06,26,02,11,16.10
2006,06,26,02,12,16.20
2006,06,26,02,13,16.20
2006,06,26,02,14,16.20
2006,06,26,02,15,16.20
2006,06,26,02,16,16.30
2006,06,26,02,17,16.30
2006,06,26,02,18,16.30
2006,06,26,02,19,16.30
2006,06,26,02,20,16.30
2006,06,26,02,21,16.30
2006,06,26,02,22,16.30
2006,06,26,02,23,16.30
2006,06,26,02,24,16.30
2006,06,26,02,25,16.30
2006,06,26,02,26,16.30
2006,06,26,02,27,16.30
2006,06,26,02,28,16.30
2006,06,26,02,29,16.30
2006,06,26,02,30,16.30
2006,06,26,02,31,16.30
2006,06,26,02,32,16.30
2006,06,26,02,33,16.30
2006,06,26,02,34,16.30
2006,06,26,02,35,16.30
2006,06,26,02,36,16.30
2006,06,26,02,37,16.30
2006,06,26,02,38,16.30
2006,06,26,02,39,16.30
2006,06,26,02,40,16.30
2006,06,26,02,41,16.30
2006,06,26,02,42,16.30
2006,06,26,02,43,16.30
2006,06,26,02,44,16.30
2006,06,26,02,45,16.30
2006,06,26,02,46,16.30
2006,06,26,02,47,16.30
2006,06,26,02,48,16.30
2006,06,26,02,49,16.30
2006,06,26,02,50,16.30
2006,06,26,02,51,16.30
2006,06,26,02,52,16.30
2006,06,26,02,53,16.30
2006,06,26,02,54,16.30
2006,06,26,02,55,16.30
2006,06,26,02,56,16.30
2006,06,26,02,57,16.30
2006,06,26,02,58,16.30
2006,06,26,02,59,16.40
2006,06,26,03,00,16.40
2006,06,26,03,01,16.40
2006,06,26,03,02,16.40
2006,06,26,03,03,16.40
2006,06,26,03,04,16.40
2006,06,26,03,05,16.40
2006,06,26,03,06,16.40
2006,06,26,03,07,16.40
2006,06,26,03,08,16.40
2006,06,26,03,09,16.40
2006,06,26,03,10,16.40
2006,06,26,03,11,16.40
2006,06,26,03,12,16.40
2006,06,26,03,13,16.40
2006,06,26,03,14,16.40
2006,06,26,03,15,16.40
2006,06,26,03,16,16.40
2006,06,26,03,17,16.40
2006,06,26,03,18,16.40
2006,06,26,03,19,16.40
2006,06,26,03,20,16.40
2006,06,26,03,21,16.40
2006,06,26,03,22,16.40
2006,06,26,03,23,16.40
2006,06,26,03,24,16.40
2006,06,26,03,25,16.40
2006,06,26,03,26,16.40
2006,06,26,03,27,16.30
2006,06,26,03,28,16.30
2006,06,26,03,29,16.30
2006,06,26,03,30,16.30
2006,06,26,03,31,16.30
2006,06,26,03,32,16.30
2006,06,26,03,33,16.30
2006,06,26,03,34,16.30
2006,06,26,03,35,16.30
2006,06,26,03,36,16.30
2006,06,26,03,37,16.30
2006,06,26,03,38,16.30
2006,06,26,03,39,16.30
2006,06,26,03,40,16.30
2006,06,26,03,41,16.30
2006,06,26,03,42,16.30
2006,06,26,03,43,16.30
2006,06,26,03,44,16.30
2006,06,26,03,45,16.30
2006,06,26,03,46,16.20
2006,06,26,03,47,16.20
2006,06,26,03,48,16.20
2006,06,26,03,49,16.20
2006,06,26,03,50,16.20
2006,06,26,03,51,16.20
2006,06,26,03,52,16.20
2006,06,26,03,53,16.20
2006,06,26,03,54,16.20
2006,06,26,03,55,16.20
2006,06,26,03,56,16.10
2006,06,26,03,57,16.10
2006,06,26,03,58,16.10
2006,06,26,03,59,16.10
2006,06,26,04,00,16.10
2006,06,26,04,01,16.10
2006,06,26,04,02,16.10
2006,06,26,04,03,16.10
2006,06,26,04,04,16.10
2006,06,26,04,05,15.90
2006,06,26,04,06,16.00
2006,06,26,04,07,15.90
2006,06,26,04,08,15.90
2006,06,26,04,09,15.90
2006,06,26,04,10,15.90
2006,06,26,04,11,15.90
2006,06,26,04,12,15.90
2006,06,26,04,13,15.90
2006,06,26,04,14,15.90
2006,06,26,04,15,15.90
2006,06,26,04,16,15.90
2006,06,26,04,17,15.90
2006,06,26,04,18,15.90
2006,06,26,04,19,15.90
2006,06,26,04,20,15.80
2006,06,26,04,21,15.80
2006,06,26,04,22,15.80
2006,06,26,04,23,15.80
2006,06,26,04,24,15.80
2006,06,26,04,25,15.80
2006,06,26,04,26,15.80
2006,06,26,04,27,15.80
2006,06,26,04,28,15.80
2006,06,26,04,29,15.80
2006,06,26,04,30,15.80
2006,06,26,04,31,15.80
2006,06,26,04,32,15.80
2006,06,26,04,33,15.80
2006,06,26,04,34,15.80
2006,06,26,04,35,15.80
2006,06,26,04,36,15.70
2006,06,26,04,37,15.70
2006,06,26,04,38,15.70
2006,06,26,04,39,15.60
2006,06,26,04,40,15.60
2006,06,26,04,41,15.50
2006,06,26,04,42,15.50
2006,06,26,04,43,15.40
2006,06,26,04,44,15.40
2006,06,26,04,45,15.30
2006,06,26,04,46,15.20
2006,06,26,04,47,15.00
2006,06,26,04,48,14.80
2006,06,26,04,49,14.60
2006,06,26,04,50,14.50
2006,06,26,04,51,14.40
2006,06,26,04,52,14.20
2006,06,26,04,53,14.10
2006,06,26,04,54,14.00
2006,06,26,04,55,13.90
2006,06,26,04,56,13.90
2006,06,26,04,57,13.80
2006,06,26,04,58,13.70
2006,06,26,04,59,13.60
2006,06,26,05,00,13.60
2006,06,26,05,01,13.50
2006,06,26,05,02,13.50
2006,06,26,05,03,13.50
2006,06,26,05,04,13.50
2006,06,26,05,05,13.40
2006,06,26,05,06,13.40
2006,06,26,05,07,13.50
2006,06,26,05,08,13.50
2006,06,26,05,09,13.40
2006,06,26,05,10,13.40
2006,06,26,05,11,13.40
2006,06,26,05,12,13.40
2006,06,26,05,13,13.50
2006,06,26,05,14,13.50
2006,06,26,05,15,13.50
2006,06,26,05,16,13.50
2006,06,26,05,17,13.50
2006,06,26,05,18,13.50
2006,06,26,05,19,13.60
2006,06,26,05,20,13.50
2006,06,26,05,21,13.50
2006,06,26,05,22,13.50
2006,06,26,05,23,13.50
2006,06,26,05,24,13.50
2006,06,26,05,25,13.50
2006,06,26,05,26,13.50
2006,06,26,05,27,13.50
2006,06,26,05,28,13.40
2006,06,26,05,29,13.40
2006,06,26,05,30,13.40
2006,06,26,05,31,13.40
2006,06,26,05,32,13.40
2006,06,26,05,33,13.40
2006,06,26,05,34,13.40
2006,06,26,05,35,13.40
2006,06,26,05,36,13.50
2006,06,26,05,37,13.50
2006,06,26,05,38,13.60
2006,06,26,05,39,13.60
2006,06,26,05,40,13.60
2006,06,26,05,41,13.60
2006,06,26,05,42,13.70
2006,06,26,05,43,13.70
2006,06,26,05,44,13.70
2006,06,26,05,45,13.70
2006,06,26,05,46,13.70
2006,06,26,05,47,13.70
2006,06,26,05,48,13.60
2006,06,26,05,49,13.50
2006,06,26,05,50,13.30
2006,06,26,05,51,13.30
2006,06,26,05,52,13.20
2006,06,26,05,53,13.20
2006,06,26,05,54,13.20
2006,06,26,05,55,13.10
2006,06,26,05,56,13.10
2006,06,26,05,57,13.10
2006,06,26,05,58,13.20
2006,06,26,05,59,13.20
2006,06,26,06,00,13.20
2006,06,26,06,01,13.30
2006,06,26,06,02,13.30
2006,06,26,06,03,13.30
2006,06,26,06,04,13.30
2006,06,26,06,05,13.30
2006,06,26,06,06,13.20
2006,06,26,06,07,13.20
2006,06,26,06,08,13.20
2006,06,26,06,09,13.20
2006,06,26,06,10,13.20
2006,06,26,06,11,13.20
2006,06,26,06,12,13.20
2006,06,26,06,13,13.20
2006,06,26,06,14,13.20
2006,06,26,06,15,13.20
2006,06,26,06,16,13.10
2006,06,26,06,17,13.10
2006,06,26,06,18,13.20
2006,06,26,06,19,13.20
2006,06,26,06,20,13.20
2006,06,26,06,21,13.20
2006,06,26,06,22,13.30
2006,06,26,06,23,13.30
2006,06,26,06,24,13.30
2006,06,26,06,25,13.30
2006,06,26,06,26,13.30
2006,06,26,06,27,13.40
2006,06,26,06,28,13.50
2006,06,26,06,29,13.50
2006,06,26,06,30,13.60
2006,06,26,06,31,13.60
2006,06,26,06,32,13.70
2006,06,26,06,33,13.70
2006,06,26,06,34,13.70
2006,06,26,06,35,13.70
2006,06,26,06,36,13.80
2006,06,26,06,37,13.90
2006,06,26,06,38,14.00
2006,06,26,06,39,14.00
2006,06,26,06,40,14.10
2006,06,26,06,41,14.20
2006,06,26,06,42,14.40
2006,06,26,06,43,14.50
2006,06,26,06,44,14.60
2006,06,26,06,45,14.70
2006,06,26,06,46,14.80
2006,06,26,06,47,15.00
2006,06,26,06,48,15.10
2006,06,26,06,49,15.20
2006,06,26,06,50,15.40
2006,06,26,06,51,15.60
2006,06,26,06,52,15.80
2006,06,26,06,53,16.00
2006,06,26,06,54,16.20
2006,06,26,06,55,16.30
2006,06,26,06,56,16.50
2006,06,26,06,57,16.60
2006,06,26,06,58,16.70
2006,06,26,06,59,16.80
2006,06,26,07,00,16.90
2006,06,26,07,01,17.00
2006,06,26,07,02,17.20
2006,06,26,07,03,17.30
2006,06,26,07,04,17.40
2006,06,26,07,05,17.60
2006,06,26,07,06,17.70
2006,06,26,07,07,17.80
2006,06,26,07,08,17.90
2006,06,26,07,09,18.10
2006,06,26,07,10,18.20
2006,06,26,07,11,18.30
2006,06,26,07,12,18.30
2006,06,26,07,13,18.40
2006,06,26,07,14,18.40
2006,06,26,07,15,18.50
2006,06,26,07,16,18.50
2006,06,26,07,17,18.60
2006,06,26,07,18,18.60
2006,06,26,07,19,18.70
2006,06,26,07,20,18.80
2006,06,26,07,21,18.80
2006,06,26,07,22,18.90
2006,06,26,07,23,19.00
2006,06,26,07,24,19.10
2006,06,26,07,25,19.10
2006,06,26,07,26,19.20
2006,06,26,07,27,19.30
2006,06,26,07,28,19.30
2006,06,26,07,29,19.40
2006,06,26,07,30,19.40
2006,06,26,07,31,19.50
2006,06,26,07,32,19.60
2006,06,26,07,33,19.70
2006,06,26,07,34,19.80
2006,06,26,07,35,19.90
2006,06,26,07,36,19.90
2006,06,26,07,37,20.00
2006,06,26,07,38,20.10
2006,06,26,07,39,20.20
2006,06,26,07,40,20.20
2006,06,26,07,41,20.30
2006,06,26,07,42,20.30
2006,06,26,07,43,20.30
2006,06,26,07,44,20.40
2006,06,26,07,45,20.40
2006,06,26,07,46,20.50
2006,06,26,07,47,20.50
2006,06,26,07,48,20.60
2006,06,26,07,49,20.60
2006,06,26,07,50,20.60
2006,06,26,07,51,20.60
2006,06,26,07,52,20.70
2006,06,26,07,53,20.70
2006,06,26,07,54,20.80
2006,06,26,07,55,20.80
2006,06,26,07,56,20.90
2006,06,26,07,57,20.90
2006,06,26,07,58,21.00
2006,06,26,07,59,21.00
2006,06,26,08,00,21.10
2006,06,26,08,01,21.20
2006,06,26,08,02,21.30
2006,06,26,08,03,21.30
2006,06,26,08,04,21.30
2006,06,26,08,05,21.40
2006,06,26,08,06,21.50
2006,06,26,08,07,21.60
2006,06,26,08,08,21.60
2006,06,26,08,09,21.60
2006,06,26,08,10,21.60
2006,06,26,08,11,21.70
2006,06,26,08,12,21.70
2006,06,26,08,13,21.70
2006,06,26,08,14,21.70
2006,06,26,08,15,21.70
2006,06,26,08,16,21.60
2006,06,26,08,17,21.60
2006,06,26,08,18,21.60
2006,06,26,08,19,21.60
2006,06,26,08,20,21.60
2006,06,26,08,21,21.60
2006,06,26,08,22,21.60
2006,06,26,08,23,21.60
2006,06,26,08,24,21.60
2006,06,26,08,25,21.60
2006,06,26,08,26,21.70
2006,06,26,08,27,21.70
2006,06,26,08,28,21.70
2006,06,26,08,29,21.60
2006,06,26,08,30,21.60
2006,06,26,08,31,21.60
2006,06,26,08,32,21.60
2006,06,26,08,33,21.60
2006,06,26,08,34,21.60
2006,06,26,08,35,21.50
2006,06,26,08,36,21.50
2006,06,26,08,37,21.50
2006,06,26,08,38,21.60
2006,06,26,08,39,21.40
2006,06,26,08,40,21.40
2006,06,26,08,41,21.40
2006,06,26,08,42,21.40
2006,06,26,08,43,21.40
2006,06,26,08,44,21.40
2006,06,26,08,45,21.40
2006,06,26,08,46,21.40
2006,06,26,08,47,21.30
2006,06,26,08,48,21.30
2006,06,26,08,49,21.20
2006,06,26,08,50,21.10
2006,06,26,08,51,21.00
2006,06,26,08,52,20.90
2006,06,26,08,53,20.80
2006,06,26,08,54,20.80
2006,06,26,08,55,20.80
2006,06,26,08,56,20.80
2006,06,26,08,57,20.80
2006,06,26,08,58,20.80
2006,06,26,08,59,20.80
2006,06,26,09,00,20.80
2006,06,26,09,01,20.80
2006,06,26,09,02,20.80
2006,06,26,09,03,20.80
2006,06,26,09,04,20.80
2006,06,26,09,05,20.90
2006,06,26,09,06,21.00
2006,06,26,09,07,21.10
2006,06,26,09,08,21.20
2006,06,26,09,09,21.30
2006,06,26,09,10,21.40
2006,06,26,09,11,21.60
2006,06,26,09,12,21.60
2006,06,26,09,13,21.60
2006,06,26,09,14,21.60
2006,06,26,09,15,21.60
2006,06,26,09,16,21.60
2006,06,26,09,17,21.60
2006,06,26,09,18,21.60
2006,06,26,09,19,21.70
2006,06,26,09,20,21.70
2006,06,26,09,21,21.80
2006,06,26,09,22,21.90
2006,06,26,09,23,22.00
2006,06,26,09,24,22.10
2006,06,26,09,25,22.10
2006,06,26,09,26,22.10
2006,06,26,09,27,22.10
2006,06,26,09,28,22.00
2006,06,26,09,29,21.80
2006,06,26,09,30,21.60
2006,06,26,09,31,21.60
2006,06,26,09,32,21.40
2006,06,26,09,33,21.30
2006,06,26,09,34,21.30
2006,06,26,09,35,21.30
2006,06,26,09,36,21.30
2006,06,26,09,37,21.30
2006,06,26,09,38,21.30
2006,06,26,09,39,21.30
2006,06,26,09,40,21.30
2006,06,26,09,41,21.30
2006,06,26,09,42,21.30
2006,06,26,09,43,21.30
2006,06,26,09,44,21.30
2006,06,26,09,45,21.30
2006,06,26,09,46,21.30
2006,06,26,09,47,21.30
2006,06,26,09,48,21.20
2006,06,26,09,49,21.20
2006,06,26,09,50,21.30
2006,06,26,09,51,21.30
2006,06,26,09,52,21.30
2006,06,26,09,53,21.30
2006,06,26,09,54,21.30
2006,06,26,09,55,21.30
2006,06,26,09,56,21.30
2006,06,26,09,57,21.40
2006,06,26,09,58,21.40
2006,06,26,09,59,21.50
2006,06,26,10,00,21.60
2006,06,26,10,01,21.60
2006,06,26,10,02,21.70
2006,06,26,10,03,21.70
2006,06,26,10,04,21.70
2006,06,26,10,05,21.80
2006,06,26,10,06,21.90
2006,06,26,10,07,21.90
2006,06,26,10,08,22.00
2006,06,26,10,09,22.00
2006,06,26,10,10,22.00
2006,06,26,10,11,22.10
2006,06,26,10,12,22.10
2006,06,26,10,13,22.10
2006,06,26,10,14,22.00
2006,06,26,10,15,22.00
2006,06,26,10,16,21.90
2006,06,26,10,17,21.70
2006,06,26,10,18,21.60
2006,06,26,10,19,21.60
2006,06,26,10,20,21.60
2006,06,26,10,21,21.60
2006,06,26,10,22,21.60
2006,06,26,10,23,21.60
2006,06,26,10,24,21.70
2006,06,26,10,25,21.80
2006,06,26,10,26,21.90
2006,06,26,10,27,22.00
2006,06,26,10,28,22.00
2006,06,26,10,29,22.10
2006,06,26,10,30,22.10
2006,06,26,10,31,22.10
2006,06,26,10,32,22.10
2006,06,26,10,33,22.10
2006,06,26,10,34,22.10
2006,06,26,10,35,22.10
2006,06,26,10,36,22.00
2006,06,26,10,37,22.00
2006,06,26,10,38,22.00
2006,06,26,10,39,22.00
2006,06,26,10,40,22.10
2006,06,26,10,41,22.20
2006,06,26,10,42,22.20
2006,06,26,10,43,22.30
2006,06,26,10,44,22.40
2006,06,26,10,45,22.40
2006,06,26,10,46,22.50
2006,06,26,10,47,22.60
2006,06,26,10,48,22.70
2006,06,26,10,49,22.70
2006,06,26,10,50,22.70
2006,06,26,10,51,22.60
2006,06,26,10,52,22.60
2006,06,26,10,53,22.50
2006,06,26,10,54,22.40
2006,06,26,10,55,22.40
2006,06,26,10,56,22.40
2006,06,26,10,57,22.40
2006,06,26,10,58,22.50
2006,06,26,10,59,22.50
2006,06,26,11,00,22.50
2006,06,26,11,01,22.60
2006,06,26,11,02,22.50
2006,06,26,11,03,22.40
2006,06,26,11,04,22.30
2006,06,26,11,05,22.20
2006,06,26,11,06,22.10
2006,06,26,11,07,22.00
2006,06,26,11,08,22.00
2006,06,26,11,09,22.00
2006,06,26,11,10,22.00
2006,06,26,11,11,22.10
2006,06,26,11,12,22.10
2006,06,26,11,13,22.20
2006,06,26,11,14,22.20
2006,06,26,11,15,22.30
2006,06,26,11,16,22.30
2006,06,26,11,17,22.30
2006,06,26,11,18,22.40
2006,06,26,11,19,22.40
2006,06,26,11,20,22.40
2006,06,26,11,21,22.40
2006,06,26,11,22,22.50
2006,06,26,11,23,22.50
2006,06,26,11,24,22.60
2006,06,26,11,25,22.60
2006,06,26,11,26,22.60
2006,06,26,11,27,22.60
2006,06,26,11,28,22.60
2006,06,26,11,29,22.60
2006,06,26,11,30,22.70
2006,06,26,11,31,22.70
2006,06,26,11,32,22.70
2006,06,26,11,33,22.70
2006,06,26,11,34,22.70
2006,06,26,11,35,22.80
2006,06,26,11,36,22.90
2006,06,26,11,37,23.10
2006,06,26,11,38,23.30
2006,06,26,11,39,23.40
2006,06,26,11,40,23.60
2006,06,26,11,41,23.60
2006,06,26,11,42,23.70
2006,06,26,11,43,23.70
2006,06,26,11,44,23.70
2006,06,26,11,45,23.70
2006,06,26,11,46,23.70
2006,06,26,11,47,23.80
2006,06,26,11,48,23.90
2006,06,26,11,49,24.10
2006,06,26,11,50,24.10
2006,06,26,11,51,24.20
2006,06,26,11,52,24.20
2006,06,26,11,53,24.10
2006,06,26,11,54,24.00
2006,06,26,11,55,23.80
2006,06,26,11,56,23.60
2006,06,26,11,57,23.50
2006,06,26,11,58,23.30
2006,06,26,11,59,23.30
2006,06,26,12,00,23.20
2006,06,26,12,01,23.20
2006,06,26,12,02,23.10
2006,06,26,12,03,23.10
2006,06,26,12,04,23.10
2006,06,26,12,05,23.10
2006,06,26,12,06,23.10
2006,06,26,12,07,23.10
2006,06,26,12,08,23.10
2006,06,26,12,09,23.10
2006,06,26,12,10,23.10
2006,06,26,12,11,23.20
2006,06,26,12,12,23.30
2006,06,26,12,13,23.30
2006,06,26,12,14,23.30
2006,06,26,12,15,23.30
2006,06,26,12,16,23.40
2006,06,26,12,17,23.40
2006,06,26,12,18,23.60
2006,06,26,12,19,23.70
2006,06,26,12,20,23.70
2006,06,26,12,21,23.70
2006,06,26,12,22,23.80
2006,06,26,12,23,24.00
2006,06,26,12,24,24.10
2006,06,26,12,25,24.10
2006,06,26,12,26,24.20
2006,06,26,12,27,24.20
2006,06,26,12,28,24.20
2006,06,26,12,29,24.20
2006,06,26,12,30,24.10
2006,06,26,12,31,23.90
2006,06,26,12,32,23.70
2006,06,26,12,33,23.70
2006,06,26,12,34,23.70
2006,06,26,12,35,23.70
2006,06,26,12,36,23.70
2006,06,26,12,37,23.90
2006,06,26,12,38,24.00
2006,06,26,12,39,24.10
2006,06,26,12,40,24.20
2006,06,26,12,41,24.30
2006,06,26,12,42,24.40
2006,06,26,12,43,24.50
2006,06,26,12,44,24.50
2006,06,26,12,45,24.40
2006,06,26,12,46,24.30
2006,06,26,12,47,24.20
2006,06,26,12,48,24.10
2006,06,26,12,49,24.10
2006,06,26,12,50,24.20
2006,06,26,12,51,24.20
2006,06,26,12,52,24.20
2006,06,26,12,53,24.20
2006,06,26,12,54,24.20
2006,06,26,12,55,24.20
2006,06,26,12,56,24.10
2006,06,26,12,57,24.00
2006,06,26,12,58,23.90
2006,06,26,12,59,23.90
2006,06,26,13,00,23.90
2006,06,26,13,01,23.90
2006,06,26,13,02,23.90
2006,06,26,13,03,23.80
2006,06,26,13,04,23.70
2006,06,26,13,05,23.70
2006,06,26,13,06,23.60
2006,06,26,13,07,23.60
2006,06,26,13,08,23.70
2006,06,26,13,09,23.80
2006,06,26,13,10,23.90
2006,06,26,13,11,24.10
2006,06,26,13,12,24.00
2006,06,26,13,13,23.90
2006,06,26,13,14,23.90
2006,06,26,13,15,23.90
2006,06,26,13,16,23.90
2006,06,26,13,17,23.90
2006,06,26,13,18,23.90
2006,06,26,13,19,24.00
2006,06,26,13,20,24.10
2006,06,26,13,21,24.20
2006,06,26,13,22,24.20
2006,06,26,13,23,24.30
2006,06,26,13,24,24.40
2006,06,26,13,25,24.50
2006,06,26,13,26,24.50
2006,06,26,13,27,24.50
2006,06,26,13,28,24.50
2006,06,26,13,29,24.50
2006,06,26,13,30,24.50
2006,06,26,13,31,24.50
2006,06,26,13,32,24.50
2006,06,26,13,33,24.60
2006,06,26,13,34,24.60
2006,06,26,13,35,24.60
2006,06,26,13,36,24.60
2006,06,26,13,37,24.60
2006,06,26,13,38,24.60
2006,06,26,13,39,24.60
2006,06,26,13,40,24.70
2006,06,26,13,41,24.70
2006,06,26,13,42,24.70
2006,06,26,13,43,24.70
2006,06,26,13,44,24.70
2006,06,26,13,45,24.80
2006,06,26,13,46,24.80
2006,06,26,13,47,24.80
2006,06,26,13,48,24.90
2006,06,26,13,49,24.90
2006,06,26,13,50,24.80
2006,06,26,13,51,24.70
2006,06,26,13,52,24.60
2006,06,26,13,53,24.50
2006,06,26,13,54,24.50
2006,06,26,13,55,24.50
2006,06,26,13,56,24.50
2006,06,26,13,57,24.50
2006,06,26,13,58,24.50
2006,06,26,13,59,24.40
2006,06,26,14,00,24.30
2006,06,26,14,01,24.30
2006,06,26,14,02,24.20
2006,06,26,14,03,24.20
2006,06,26,14,04,24.20
2006,06,26,14,05,24.20
2006,06,26,14,06,24.30
2006,06,26,14,07,24.40
2006,06,26,14,08,24.30
2006,06,26,14,09,24.30
2006,06,26,14,10,24.30
2006,06,26,14,11,24.30
2006,06,26,14,12,24.30
2006,06,26,14,13,24.50
2006,06,26,14,14,24.60
2006,06,26,14,15,24.80
2006,06,26,14,16,24.80
2006,06,26,14,17,24.90
2006,06,26,14,18,25.10
2006,06,26,14,19,25.20
2006,06,26,14,20,25.20
2006,06,26,14,21,25.20
2006,06,26,14,22,25.30
2006,06,26,14,23,25.30
2006,06,26,14,24,25.20
2006,06,26,14,25,25.20
2006,06,26,14,26,25.10
2006,06,26,14,27,25.10
2006,06,26,14,28,25.10
2006,06,26,14,29,25.00
2006,06,26,14,30,25.00
2006,06,26,14,31,24.90
2006,06,26,14,32,24.90
2006,06,26,14,33,24.90
2006,06,26,14,34,24.90
2006,06,26,14,35,24.90
2006,06,26,14,36,24.90
2006,06,26,14,37,25.00
2006,06,26,14,38,25.10
2006,06,26,14,39,25.20
2006,06,26,14,40,25.20
2006,06,26,14,41,25.30
2006,06,26,14,42,25.30
2006,06,26,14,43,25.30
2006,06,26,14,44,25.40
2006,06,26,14,45,25.50
2006,06,26,14,46,25.60
2006,06,26,14,47,25.70
2006,06,26,14,48,25.90
2006,06,26,14,49,26.00
2006,06,26,14,50,26.00
2006,06,26,14,51,26.00
2006,06,26,14,52,26.00
2006,06,26,14,53,26.00
2006,06,26,14,54,26.00
2006,06,26,14,55,25.90
2006,06,26,14,56,25.90
2006,06,26,14,57,25.80
2006,06,26,14,58,25.60
2006,06,26,14,59,25.50
2006,06,26,15,00,25.40
2006,06,26,15,01,25.40
2006,06,26,15,02,25.30
2006,06,26,15,03,25.30
2006,06,26,15,04,25.20
2006,06,26,15,05,25.20
2006,06,26,15,06,25.10
2006,06,26,15,07,25.10
2006,06,26,15,08,25.20
2006,06,26,15,09,25.20
2006,06,26,15,10,25.40
2006,06,26,15,11,25.50
2006,06,26,15,12,25.50
2006,06,26,15,13,25.60
2006,06,26,15,14,25.60
2006,06,26,15,15,25.60
2006,06,26,15,16,25.60
2006,06,26,15,17,25.60
2006,06,26,15,18,25.70
2006,06,26,15,19,25.70
2006,06,26,15,20,25.80
2006,06,26,15,21,25.70
2006,06,26,15,22,25.70
2006,06,26,15,23,25.70
2006,06,26,15,24,25.70
2006,06,26,15,25,25.70
2006,06,26,15,26,25.80
2006,06,26,15,27,25.90
2006,06,26,15,28,25.90
2006,06,26,15,29,26.10
2006,06,26,15,30,26.30
2006,06,26,15,31,26.30
2006,06,26,15,32,26.40
2006,06,26,15,33,26.40
2006,06,26,15,34,26.40
2006,06,26,15,35,26.30
2006,06,26,15,36,26.30
2006,06,26,15,37,26.30
2006,06,26,15,38,26.30
2006,06,26,15,39,26.30
2006,06,26,15,40,26.40
2006,06,26,15,41,26.40
2006,06,26,15,42,26.60
2006,06,26,15,43,26.60
2006,06,26,15,44,26.80
2006,06,26,15,45,26.80
2006,06,26,15,46,27.00
2006,06,26,15,47,27.20
2006,06,26,15,48,27.30
2006,06,26,15,49,27.40
2006,06,26,15,50,27.50
2006,06,26,15,51,27.60
2006,06,26,15,52,27.60
2006,06,26,15,53,27.60
2006,06,26,15,54,27.60
2006,06,26,15,55,27.40
2006,06,26,15,56,27.40
2006,06,26,15,57,27.50
2006,06,26,15,58,27.60
2006,06,26,15,59,27.50
2006,06,26,16,00,27.40
2006,06,26,16,01,27.40
2006,06,26,16,02,27.40
2006,06,26,16,03,27.50
2006,06,26,16,04,27.60
2006,06,26,16,05,27.60
2006,06,26,16,06,27.70
2006,06,26,16,07,27.70
2006,06,26,16,08,27.70
2006,06,26,16,09,27.60
2006,06,26,16,10,27.50
2006,06,26,16,11,27.40
2006,06,26,16,12,27.30
2006,06,26,16,13,27.30
2006,06,26,16,14,27.30
2006,06,26,16,15,27.30
2006,06,26,16,16,27.40
2006,06,26,16,17,27.40
2006,06,26,16,18,27.40
2006,06,26,16,19,27.60
2006,06,26,16,20,27.60
2006,06,26,16,21,27.50
2006,06,26,16,22,27.40
2006,06,26,16,23,27.40
2006,06,26,16,24,27.50
2006,06,26,16,25,27.60
2006,06,26,16,26,27.60
2006,06,26,16,27,27.40
2006,06,26,16,28,27.40
2006,06,26,16,29,27.40
2006,06,26,16,30,27.40
2006,06,26,16,31,27.50
2006,06,26,16,32,27.50
2006,06,26,16,33,27.40
2006,06,26,16,34,27.40
2006,06,26,16,35,27.30
2006,06,26,16,36,27.30
2006,06,26,16,37,27.30
2006,06,26,16,38,27.50
2006,06,26,16,39,27.60
2006,06,26,16,40,27.70
2006,06,26,16,41,27.80
2006,06,26,16,42,28.00
2006,06,26,16,43,28.20
2006,06,26,16,44,28.40
2006,06,26,16,45,28.50
2006,06,26,16,46,28.70
2006,06,26,16,47,28.70
2006,06,26,16,48,28.80
2006,06,26,16,49,28.80
2006,06,26,16,50,28.80
2006,06,26,16,51,28.70
2006,06,26,16,52,28.60
2006,06,26,16,53,28.50
2006,06,26,16,54,28.40
2006,06,26,16,55,28.40
2006,06,26,16,56,28.30
2006,06,26,16,57,28.30
2006,06,26,16,58,28.30
2006,06,26,16,59,28.30
2006,06,26,17,00,28.20
2006,06,26,17,01,28.20
2006,06,26,17,02,28.30
2006,06,26,17,03,28.30
2006,06,26,17,04,28.40
2006,06,26,17,05,28.40
2006,06,26,17,06,28.50
2006,06,26,17,07,28.60
2006,06,26,17,08,28.50
2006,06,26,17,09,28.40
2006,06,26,17,10,28.30
2006,06,26,17,11,28.30
2006,06,26,17,12,28.30
2006,06,26,17,13,28.20
2006,06,26,17,14,28.20
2006,06,26,17,15,28.20
2006,06,26,17,16,28.30
2006,06,26,17,17,28.30
2006,06,26,17,18,28.30
2006,06,26,17,19,28.30